sat.trackr.live / text

‹ back to catalog

STARLINK-6324

NORAD 57353 · 2023-099AB

PAYLOAD ACTIVE UNKNOWN

§ Identity

Operator
Country
US
Launch date
2023-07-16
Launch site
AFETR
Launch vehicle
Mass (kg)
RCS (m²)

Purposes: comms

External: N2YO · Heavens-Above · Gunter

§ Orbital elements

Epoch: 2026-05-25T02:31:18.086016Z

Period
94.27 min
Inclination
43.0026°
Eccentricity
0.0001398
Mean motion
15.27578682 rev/d
Perigee alt
482.1 km
Apogee alt
484.0 km
Semi-major
6,861.2 km
B*
1.4795e-5
RAAN
177.3918°
Arg perigee
268.5616°
Mean anomaly
91.5076°
Rev number
15,780

§ Raw data

STARLINK-63241 57353U 23099AB  26145.10507044  .00000145  00000+0  14795-4 0  99942 57353  43.0026 177.3918 0001398 268.5616  91.5076 15.27578682157801

JSON: /api/v1/satellites/57353 · /tle

For live sub-satellite position, see the globe view (requires WebGL).

§ Visibility from observer

Set your observer location to see the next 7 days of passes ≥ 10°. The values pass through the URL so the page stays shareable.

No JS? Fill the form by hand. The geolocation button needs JavaScript.